Find Starlink 31726

NORAD ID: 59739 Int'l Des: 2024-090 Owner: SPXS Country: US Constellation: starlink operational
LEOCIRCULAR

Current View

Loading 3D Globe...

About Starlink 31726

Starlink 31726 (NORAD 59739) is a starlink constellation satellite (v2 mini) launched May 13, 2024 by SPXS of US. It operates in LEO, CIRCULAR orbit with a mass of 730.00 kg.

About Starlink 31726

Description loading...

Upcoming Passes

Passes for default location (London). Set your location on the main map for personalized predictions.

Altitude History

Loading altitude history...

Two-Line Element Set

1 59739U 24090K 26165.78811387 .00001437 00000-0 61752-4 0 9991
2 59739 43.0034 354.8265 0001777 245.8750 114.1916 15.27579350118293
Epoch: Jun 14, 2026 • Age: 34 hours

Current Status

Altitude 485.7 km
Velocity 7.62 km/s
Sub-Earth Point -14.44°S, 13.9°W
Launch Date May 13, 2024
Age 2 years
Type internet

Technical Details

Classification Payload
Mass 730.00 kg
Dry Mass 700.00 kg
Total Mass 730.00 kg
Length 0.30 m
Diameter 4.10 m
Span 29.00 m
Shape Box + pan
Manufacturer SPXS
Bus Type Starlink V2M
Phase Status In Orbit
Owner/State SPXS/US

Most Searched